Moffett Field, CA

1:31 PM PDT on August 28, 2016 (GMT -0700)
Moffett Federal Air Field

Weather History for KNUQ - September, 2012

Change the Weather History Date:

Wednesday, September 12, 2012

  Actual Average Record
Temperature  
Mean Temperature 64 °F 68 °F  
Max Temperature 73 °F 78 °F 100 °F (1979)
Min Temperature 55 °F 58 °F 41 °F (1946)
Degree Days  
Heating Degree Days 1    
Month to date heating degree days 6  
Since 1 July heating degree days 23  
Cooling Degree Days 0    
Month to date cooling degree days 9  
Year to date cooling degree days 243  
Growing Degree Days 14 (Base 50)    
Moisture  
Dew Point 55 °F    
Average Humidity 73    
Maximum Humidity 93    
Minimum Humidity 53    
Precipitation  
Precipitation 0.00 in 0.01 in 0.14 in (1963)
Month to date precipitation T 0.04  
Year to date precipitation 5.51 9.70  
Since 1 July precipitation T  
Sea Level Pressure  
Sea Level Pressure 30.04 in    
Wind  
Wind Speed 4 mph (NNW)    
Max Wind Speed 13 mph    
Max Gust Speed 17 mph    
Visibility 9 miles    
Events      
T = Trace of Precipitation, MM = Missing Value Source: NWS Daily Summary

Daily Weather History Graph

Daily Weather History Graph

Search for Another Location

Airport or City:

Trip Planner

Search our weather history database for the weather conditions in past years. The results will help you decide how hot, cold, wet, or windy it might be!

Date:

Astronomy

Sep. 12, 2012 Rise Set
Actual Time 6:48 AM PDT 7:19 PM PDT
Civil Twilight 6:21 AM PDT 7:45 PM PDT
Nautical Twilight 5:51 AM PDT 8:16 PM PDT
Astronomical Twilight 5:19 AM PDT 8:48 PM PDT
Moon 3:14 AM PDT (9/12) 5:07 PM PDT (9/12)
Length of Visible Light 13h 23m
Length of Day
12h 31m
Waning Crescent, 13% of the Moon is Illuminated
Sep 12
Waning Crescent
Sep 15
New
Sep 22
First Quarter
Sep 29
Full
Oct 8
Last Quarter

Hourly Weather History & Observations

Time (PDT) Temp. Dew Point Humidity Pressure Visibility Wind Dir Wind Speed Gust Speed Precip Events Conditions
12:56 AM 60.1 °F 55.9 °F 86% 29.98 in 10.0 mi Calm Calm - N/A   Clear
1:56 AM 60.1 °F 55.0 °F 83% 29.99 in 10.0 mi Calm Calm - N/A   Clear
2:56 AM 57.9 °F 54.0 °F 87% 29.99 in 10.0 mi Calm Calm - N/A   Clear
3:56 AM 57.9 °F 54.0 °F 87% 30.00 in 9.0 mi Calm Calm - N/A   Scattered Clouds
4:05 AM 57.2 °F 53.6 °F 88% 29.99 in 9.0 mi Calm Calm - N/A   Mostly Cloudy
4:30 AM 57.2 °F 53.6 °F 88% 30.00 in 9.0 mi Calm Calm - N/A   Overcast
4:56 AM 57.9 °F 54.0 °F 87% 30.01 in 9.0 mi Calm Calm - N/A   Overcast
5:37 AM 57.2 °F 55.4 °F 94% 30.01 in 7.0 mi NNE 3.5 mph - N/A   Scattered Clouds
5:49 AM 57.2 °F 53.6 °F 88% 30.01 in 7.0 mi ESE 3.5 mph - N/A   Mostly Cloudy
5:56 AM 55.9 °F 53.1 °F 90% 30.03 in 9.0 mi SE 4.6 mph - N/A   Mostly Cloudy
6:51 AM 55.4 °F 51.8 °F 88% 30.03 in 10.0 mi ESE 3.5 mph - N/A   Partly Cloudy
6:56 AM 55.0 °F 51.1 °F 86% 30.04 in 9.0 mi Calm Calm - N/A   Partly Cloudy
7:27 AM 55.4 °F 51.8 °F 88% 30.05 in 10.0 mi Calm Calm - N/A   Scattered Clouds
7:41 AM 57.2 °F 51.8 °F 82% 30.05 in 10.0 mi Calm Calm - N/A   Mostly Cloudy
7:56 AM 57.9 °F 52.0 °F 81% 30.07 in 10.0 mi Calm Calm - N/A   Overcast
8:32 AM 60.8 °F 53.6 °F 77% 30.07 in 9.0 mi Calm Calm - N/A   Overcast
8:56 AM 61.0 °F 54.0 °F 78% 30.08 in 8.0 mi Calm Calm - N/A   Overcast
9:25 AM 62.6 °F 53.6 °F 72% 30.07 in 7.0 mi Variable 3.5 mph - N/A   Scattered Clouds
9:56 AM 63.0 °F 55.0 °F 75% 30.09 in 8.0 mi Calm Calm - N/A   Clear
10:56 AM 64.9 °F 55.0 °F 70% 30.09 in 8.0 mi North 4.6 mph - N/A   Clear
11:56 AM 66.9 °F 55.0 °F 66% 30.08 in 10.0 mi NNW 8.1 mph - N/A   Clear
12:56 PM 70.0 °F 55.0 °F 59% 30.06 in 10.0 mi North 8.1 mph - N/A   Clear
1:56 PM 71.1 °F 54.0 °F 55% 30.05 in 10.0 mi NNW 11.5 mph - N/A   Clear
2:56 PM 72.0 °F 57.0 °F 59% 30.04 in 10.0 mi NNW 10.4 mph - N/A   Clear
3:56 PM 73.0 °F 57.9 °F 59% 30.02 in 10.0 mi NNW 11.5 mph - N/A   Clear
4:56 PM 71.1 °F 59.0 °F 66% 30.01 in 10.0 mi NNW 12.7 mph - N/A   Clear
5:56 PM 70.0 °F 59.0 °F 68% 30.01 in 10.0 mi NNW 10.4 mph - N/A   Clear
6:56 PM 66.9 °F 59.0 °F 76% 30.01 in 10.0 mi NW 4.6 mph - N/A   Clear
7:56 PM 64.9 °F 57.9 °F 78% 30.02 in 10.0 mi NW 4.6 mph - N/A   Clear
8:56 PM 64.0 °F 57.0 °F 78% 30.04 in 10.0 mi NW 3.5 mph - N/A   Clear
9:56 PM 63.0 °F 57.9 °F 84% 30.05 in 10.0 mi Calm Calm - N/A   Clear
10:56 PM 62.1 °F 57.9 °F 86% 30.06 in 10.0 mi WNW 3.5 mph - N/A   Clear
11:56 PM 62.1 °F 57.9 °F 86% 30.06 in 10.0 mi WNW 3.5 mph - N/A   Clear